Willimantic, CT

1:26 AM EST on February 25, 2018 (GMT -0500)
Windham

Weather History for KIJD - November, 2013

Change the Weather History Date:

Sunday, November 3, 2013

  Actual Average Record
Temperature  
Mean Temperature 41 °F -  
Max Temperature 48 °F 60 °F 80 °F (1982)
Min Temperature 34 °F 37 °F 18 °F (1965)
Degree Days  
Heating Degree Days 24    
Moisture  
Dew Point 29 °F    
Average Humidity 60    
Maximum Humidity 90    
Minimum Humidity 34    
Precipitation  
Precipitation 0.00 in - - ()
Sea Level Pressure  
Sea Level Pressure 30.09 in    
Wind  
Wind Speed 7 mph (North)    
Max Wind Speed 15 mph    
Max Gust Speed 20 mph    
Visibility 10 miles    
Events      
Averages and records for this station are not official NWS values.
T = Trace of Precipitation, MM = Missing Value Source: NWS Daily Summary

Daily Weather History Graph

Daily Weather History Graph

Search for Another Location

Airport or City:

Trip Planner

Search our weather history database for the weather conditions in past years. The results will help you decide how hot, cold, wet, or windy it might be!

Date:

Astronomy

Nov. 03, 2013 Rise Set
Actual Time 6:23 AM EST 4:40 PM EST
Civil Twilight 5:54 AM EST 5:09 PM EST
Nautical Twilight 5:21 AM EST 5:42 PM EST
Astronomical Twilight 4:49 AM EST 6:14 PM EST
Moon 6:24 AM EST (11/3) 4:52 PM EST (11/3)
Length of Visible Light 11h 14m
Length of Day
10h 16m
New Moon, 0% of the Moon is Illuminated
Nov 3
New Moon
Nov 10
First Quarter
Nov 17
Full
Nov 25
Last Quarter
Dec 2
New

Hourly Weather History & Observations

Time (EST) Temp. Windchill Dew Point Humidity Pressure Visibility Wind Dir Wind Speed Gust Speed Precip Events Conditions
12:52 AM 48.9 °F - 44.1 °F 83% 29.78 in 10.0 mi Calm Calm - N/A   Clear
1:52 AM 45.0 °F 43.5 °F 42.1 °F 90% 29.78 in 10.0 mi North 3.5 mph - N/A   Clear
1:52 AM 46.9 °F - 41.0 °F 80% 29.81 in 10.0 mi North 3.5 mph - N/A   Partly Cloudy
2:52 AM 46.0 °F 41.4 °F 41.0 °F 83% 29.83 in 10.0 mi North 9.2 mph - N/A   Clear
3:52 AM 44.1 °F 40.1 °F 37.9 °F 79% 29.88 in 10.0 mi North 6.9 mph - N/A   Clear
4:52 AM 43.0 °F 38.2 °F 36.0 °F 76% 29.92 in 10.0 mi North 8.1 mph - N/A   Overcast
5:52 AM 42.1 °F 36.6 °F 33.1 °F 70% 29.96 in 10.0 mi North 9.2 mph - N/A   Overcast
6:42 AM 42.1 °F 35.7 °F 33.1 °F 70% 29.98 in 10.0 mi North 11.5 mph - N/A   Overcast
6:52 AM 42.1 °F 37.7 °F 32.0 °F 67% 29.99 in 10.0 mi North 6.9 mph - N/A   Overcast
7:52 AM 42.1 °F 35.7 °F 32.0 °F 67% 30.04 in 10.0 mi North 11.5 mph 17.3 mph N/A   Overcast
8:52 AM 42.1 °F 34.5 °F 30.9 °F 65% 30.06 in 10.0 mi North 15.0 mph 19.6 mph N/A   Overcast
9:52 AM 43.0 °F 36.0 °F 30.0 °F 60% 30.09 in 10.0 mi NNW 13.8 mph - N/A   Overcast
10:04 AM 43.0 °F 36.0 °F 30.0 °F 60% 30.09 in 10.0 mi NNE 13.8 mph - N/A   Overcast
10:52 AM 45.0 °F 39.7 °F 30.0 °F 56% 30.11 in 10.0 mi NNE 10.4 mph - N/A   Overcast
11:52 AM 46.0 °F 41.4 °F 28.9 °F 51% 30.12 in 10.0 mi North 9.2 mph - N/A   Overcast
12:52 PM 46.0 °F 40.6 °F 27.0 °F 47% 30.13 in 10.0 mi NW 11.5 mph - N/A   Overcast
1:52 PM 48.9 °F - 26.1 °F 41% 30.14 in 10.0 mi North 8.1 mph - N/A   Clear
2:52 PM 46.9 °F - 19.9 °F 34% 30.16 in 10.0 mi North 11.5 mph 18.4 mph N/A   Overcast
3:52 PM 46.0 °F 42.5 °F 21.0 °F 37% 30.19 in 10.0 mi North 6.9 mph - N/A   Partly Cloudy
4:52 PM 44.1 °F 40.1 °F 21.0 °F 40% 30.23 in 10.0 mi NNE 6.9 mph - N/A   Overcast
5:52 PM 41.0 °F 39.0 °F 21.9 °F 47% 30.26 in 10.0 mi NNW 3.5 mph - N/A   Clear
6:52 PM 39.9 °F 34.5 °F 19.9 °F 45% 30.30 in 10.0 mi NNW 8.1 mph - N/A   Clear
7:52 PM 37.9 °F 32.1 °F 19.9 °F 48% 30.33 in 10.0 mi North 8.1 mph - N/A   Clear
8:52 PM 35.1 °F 29.3 °F 19.9 °F 54% 30.37 in 10.0 mi North 6.9 mph - N/A   Clear
9:52 PM 34.0 °F 28.0 °F 18.0 °F 52% 30.39 in 10.0 mi North 6.9 mph - N/A   Clear
10:52 PM 34.0 °F 26.0 °F 15.1 °F 46% 30.40 in 10.0 mi North 10.4 mph - N/A   Clear